Weather in Novokrasnoye

Russia / Astrakhan Oblast     46°26′44″N   48°50′12″E
temp.,
°C
wind,
m/s
gust,
m/s
humid.,
%
clouds,
%
prec.,
mm/h
press.,
hPa
HPBL,
m
17 october, sun
sun1701:00+13se3450100 0.0 101756
04:00+13se3346100 0.0 101730
07:00+12se4653100 0.0 101788
10:00+19sse69295 0.0 1017411
13:00+21sse791740 0.0 1016791
16:00+19sse710223 0.0 1015665
19:00+13se354999 0.0 101589
22:00+13se346498 0.1 101564
18 october, mon
mon1801:00+13ese3350100 0.1 101420
04:00+12ese3356100 0.1 101333
07:00+11ese346799 0.1 101244
10:00+14se2380100 0.6 1012252
13:00+14wsw2278100 0.0 1012281
16:00+19nw464622 0.1 1011755
19:00+14nnw335167 0.0 101219
22:00+13wnw2246100 0.0 101313
19 october, tue
tue1901:00+12wnw458042 0.0 101385
04:00+11wnw46745 0.0 1014112
07:00+10nw46715 0.0 101495
10:00+15nw345577 0.0 1015365
13:00+19wnw453762 0.0 10141386
16:00+19w563720 0.0 10131826
19:00+17wnw5941100 0.0 1013549
22:00+15wnw81050100 0.1 1014949
20 october, wed
wed2001:00+13wnw6845100 0.0 1014682
04:00+10wnw71163100 0.0 10151082
07:00+7w612745 0.0 1016589
10:00+9wnw9115649 0.0 10171481
13:00+12wnw101133100 0.0 10182606
16:00+10wnw101239100 0.0 10192150
19:00+7nw811465 0.1 10221074
22:00+6wnw7125323 0.1 1024713
21 october, thu
thu2101:00+5nw712575 0.0 1025537
04:00+3nw511635 0.0 1026406
07:00+1wnw48730 0.0 1027211
10:00+6nw56498 0.0 1029847
13:00+8nw673521 0.0 10281467
16:00+10wnw56331 0.0 10271465
19:00+6nw224416 0.0 102711
22:00+5ssw33455 0.0 102722